sat.trackr.live / text

‹ back to catalog

STARLINK-34632

NORAD 64792 · 2025-150C

PAYLOAD ACTIVE UNKNOWN

§ Identity

Operator
Country
US
Launch date
2025-07-16
Launch site
AFWTR
Launch vehicle
Mass (kg)
RCS (m²)

Purposes: comms

External: N2YO · Heavens-Above · Gunter

§ Orbital elements

Epoch: 2026-09-20T13:13:47.060832Z

Period
96.11 min
Inclination
70.0021°
Eccentricity
0.0003290
Mean motion
14.98336323 rev/d
Perigee alt
569.7 km
Apogee alt
574.3 km
Semi-major
6,950.2 km
B*
2.2522e-4
RAAN
3.0831°
Arg perigee
268.3915°
Mean anomaly
91.6868°
Rev number
6,570

§ Raw data

STARLINK-346321 64792U 25150C   26263.55123913  .00002596  00000+0  22522-3 0  99962 64792  70.0021   3.0831 0003290 268.3915  91.6868 14.98336323 65701

JSON: /api/v1/satellites/64792 · /tle

For live sub-satellite position, see the globe view (requires WebGL).

§ Visibility from observer

Set your observer location to see the next 7 days of passes ≥ 10°. The values pass through the URL so the page stays shareable.

No JS? Fill the form by hand. The geolocation button needs JavaScript.